Terminal Aerodrome Forecast
Issued by NWS

Home | Current Version | Previous Version | Graphics & Text | Print | Product List | Glossary On
Versions: 1 2 3 4 5 6 7 8 9 10 11 12 13 14 15 16 17 18 19 20 21 22 23 24 25 26 27 28 29 30 31 32 33 34 35 36
000
FTUS45 KGGW 181120
TAFOLF
TAF
KOLF 181120Z 1812/1912 VRB05KT P6SM BKN150
     FM181800 07009KT P6SM BKN080
     FM190300 08009KT P6SM BKN040
     FM190800 07008KT P6SM OVC010=

USA.gov is the U.S. government's official web portal to all federal, state and local government web resources and services.